| time (UTC) | temp C | wind direction | speed KPH | gust KPH | rain 1hr cm | rain 24hr cm | rain mn cm | humidity % | barometer mb |
| 20260504184605 | 26 | 209 | 6.4 | 22.5 | 0.00 | 0.00 | 0.00 | 69 | 1014.0 |
| 20260504183107 | 26 | 167 | 4.8 | 14.5 | 0.00 | 0.00 | 0.00 | 69 | 1014.1 |
| 20260504181601 | 26 | 120 | 3.2 | 16.1 | 0.00 | 0.00 | 0.00 | 69 | 1014.2 |
| 20260504180117 | 26 | 207 | 8.0 | 17.7 | 0.00 | 0.00 | 0.00 | 69 | 1014.1 |
| 20260504174600 | 26 | 192 | 4.8 | 19.3 | 0.00 | 0.00 | 0.00 | 69 | 1014.7 |
| 20260504173100 | 26 | 173 | 4.8 | 16.1 | 0.00 | 0.00 | 0.00 | 69 | 1014.7 |
| 20260504171600 | 26 | 196 | 3.2 | 16.1 | 0.00 | 0.00 | 0.00 | 73 | 1015.0 |
| 20260504160107 | 24 | 169 | 4.8 | 14.5 | 0.00 | 0.00 | 0.00 | 72 | 1016.0 |
| 20260504140107 | 21 | 175 | 0.0 | 4.8 | 0.00 | 0.00 | 0.00 | 78 | 1016.3 |
| 20260504100103 | 16 | 155 | 0.0 | 0.0 | 0.00 | 0.00 | 0.00 | 84 | 1015.9 |
| 20260504081559 | 16 | 155 | 0.0 | 1.6 | 0.00 | 0.00 | 0.00 | 83 | 1016.3 |
| 20260504050104 | 18 | 157 | 0.0 | 3.2 | 0.00 | 0.00 | 0.00 | 77 | 1018.7 |
| 20260504050005 | 18 | 157 | 0.0 | 3.2 | 0.00 | 0.00 | 0.00 | 76 | 1018.7 |
| 20260504044601 | 18 | 157 | 0.0 | 3.2 | 0.00 | 0.00 | 0.00 | 76 | 1018.8 |
| 20260504043058 | 18 | 157 | 0.0 | 3.2 | 0.00 | 0.00 | 0.00 | 74 | 1018.8 |
| 20260504041602 | 18 | 157 | 0.0 | 3.2 | 0.00 | 0.00 | 0.00 | 73 | 1018.8 |
| 20260504040057 | 19 | 157 | 0.0 | 3.2 | 0.00 | 0.00 | 0.00 | 72 | 1018.8 |
| 20260504034558 | 19 | 156 | 0.0 | 3.2 | 0.00 | 0.00 | 0.00 | 71 | 1018.7 |
| 20260504033058 | 20 | 159 | 0.0 | 1.6 | 0.00 | 0.00 | 0.00 | 70 | 1018.7 |
| 20260504031558 | 20 | 152 | 0.0 | 4.8 | 0.00 | 0.00 | 0.00 | 69 | 1018.7 |
| 20260504024615 | 20 | 121 | 1.6 | 8.0 | 0.00 | 0.00 | 0.00 | 66 | 1018.6 |
| 20260504023058 | 21 | 140 | 0.0 | 4.8 | 0.00 | 0.00 | 0.00 | 66 | 1018.5 |
| 20260504021559 | 21 | 132 | 0.0 | 3.2 | 0.00 | 0.00 | 0.00 | 64 | 1018.4 |
| 20260504020058 | 21 | 152 | 0.0 | 6.4 | 0.00 | 0.00 | 0.00 | 63 | 1018.4 |
| 20260504014605 | 22 | 213 | 0.0 | 4.8 | 0.00 | 0.00 | 0.00 | 62 | 1018.1 |
| 20260504013059 | 22 | 213 | 0.0 | 4.8 | 0.00 | 0.00 | 0.00 | 60 | 1017.9 |
| 20260504011558 | 22 | 181 | 0.0 | 8.0 | 0.00 | 0.00 | 0.00 | 59 | 1018.0 |
| 20260504010105 | 23 | 144 | 0.0 | 3.2 | 0.00 | 0.00 | 0.00 | 58 | 1017.9 |
| 20260504004600 | 23 | 132 | 0.0 | 4.8 | 0.00 | 0.00 | 0.00 | 57 | 1018.0 |
| 20260504001557 | 24 | 139 | 0.0 | 6.4 | 0.00 | 0.00 | 0.00 | 56 | 1018.0 |
| 20260504000138 | 25 | 40 | 1.6 | 9.7 | 0.00 | 0.00 | 0.00 | 54 | 1017.9 |
| 20260503234601 | 25 | 205 | 4.8 | 11.3 | 0.00 | 0.00 | 0.00 | 54 | 1017.9 |
| 20260503233057 | 26 | 153 | 3.2 | 9.7 | 0.00 | 0.00 | 0.00 | 50 | 1018.0 |
| 20260503231559 | 26 | 124 | 0.0 | 9.7 | 0.00 | 0.00 | 0.00 | 49 | 1018.3 |
| 20260503230057 | 27 | 90 | 0.0 | 4.8 | 0.00 | 0.00 | 0.00 | 46 | 1018.2 |
| 20260503224558 | 27 | 160 | 1.6 | 8.0 | 0.00 | 0.00 | 0.00 | 44 | 1018.3 |
| 20260503223058 | 27 | 147 | 1.6 | 12.9 | 0.00 | 0.00 | 0.00 | 46 | 1018.5 |
| 20260503221600 | 26 | 163 | 3.2 | 11.3 | 0.00 | 0.00 | 0.00 | 45 | 1018.8 |
| 20260503220057 | 26 | 217 | 4.8 | 9.7 | 0.00 | 0.00 | 0.00 | 45 | 1019.0 |
| 20260503214558 | 27 | 198 | 0.0 | 8.0 | 0.00 | 0.00 | 0.00 | 46 | 1018.9 |
| 20260503213110 | 27 | 166 | 1.6 | 8.0 | 0.00 | 0.00 | 0.00 | 45 | 1019.1 |
| 20260503211620 | 27 | 198 | 1.6 | 9.7 | 0.00 | 0.00 | 0.00 | 48 | 1019.3 |
| 20260503210101 | 27 | 140 | 1.6 | 9.7 | 0.00 | 0.00 | 0.00 | 45 | 1019.7 |
| 20260503204600 | 27 | 169 | 4.8 | 9.7 | 0.00 | 0.00 | 0.00 | 44 | 1019.7 |
| 20260503203113 | 27 | 92 | 0.0 | 4.8 | 0.00 | 0.00 | 0.00 | 44 | 1020.1 |
| 20260503201558 | 27 | 196 | 3.2 | 9.7 | 0.00 | 0.00 | 0.00 | 50 | 1020.1 |
| 20260503200059 | 27 | 58 | 0.0 | 6.4 | 0.00 | 0.00 | 0.00 | 46 | 1020.5 |
| 20260503200004 | 27 | 148 | 0.0 | 6.4 | 0.00 | 0.00 | 0.00 | 46 | 1020.5 |
| 20260503194600 | 27 | 122 | 0.0 | 6.4 | 0.00 | 0.00 | 0.00 | 46 | 1020.6 |
| 20260503193100 | 26 | 192 | 1.6 | 11.3 | 0.00 | 0.00 | 0.00 | 44 | 1020.8 |
| 20260503191604 | 27 | 65 | 0.0 | 9.7 | 0.00 | 0.00 | 0.00 | 49 | 1021.1 |
| 20260503190004 | 27 | 83 | 0.0 | 6.4 | 0.00 | 0.00 | 0.00 | 48 | 1021.4 |